Location: The Saddle
(36.8333°N, 80.3417°W)
Time: 09:11:31
(UTC-04:00)

A-11 Canister half - Pass Details

Date: 30 May 2024
Orbit: 1515 x 1685 km, 47.2° (Epoch: 17 June)

Event Time Altitude Azimuth Distance (km) Brightness Sun altitude
Exits shadow 00:05:44 51° 135° (SE) 1,943 9.1 -28.8°
Drops below altitude 10° 00:14:44 10° 64° (ENE) 3,749 11.1 -29.4°
Sets 00:17:52 0° 59° (ENE) 4,715 11.7 -29.6°
